Tracking 28091 objects as of 30-Sep-2023
HD Live streaming from Space Station
objects crossing your sky now

STARLINK-3886

Track STARLINK-3886 now!
10-day predictions
STARLINK-3886 is classified as:


NORAD ID: 52582
Int'l Code: 2022-051AY
Perigee: 545.6 km
Apogee: 548.0 km
Inclination: 53.2 °
Period: 95.4 minutes
Semi major axis: 6917 km
RCS: Unknown
Launch date: May 13, 2022
Source: United States (US)
Launch site: AIR FORCE WESTERN TEST RANGE (AFWTR)
Your satellite tracking list
Your tracking list is empty




NASA's NSSDC Master Catalog

Two Line Element Set (TLE):
1 52582U 22051AY  23272.09661217  .00015842  00000-0  10107-2 0  9991
2 52582  53.2165 166.1229 0001710  85.9040 274.2148 15.08857421 76831
Source of the keplerian elements: AFSPC